Regional Weather Roundup
Issued by NWS Charleston, SC

Current Version | Previous Version | Graphics & Text | Print | Product List | Glossary On
Versions: 1 2 3 4 5 6 7 8 9 10 11 12 13 14 15 16 17 18 19 20 21 22 23 24 25 26 27 28 29 30 31 32 33 34 35 36 37 38 39 40 41 42 43 44 45 46 47 48 49 50
000
ASUS42 KCHS 260110
RWRCHS
REGIONAL WEATHER ROUNDUP
NATIONAL WEATHER SERVICE CHARLESTON SC
800 PM EST SUN JAN 25 2015

NOTE: "FAIR" INDICATES FEW OR NO CLOUDS BELOW 12,000 FEET WITH NO
SIGNIFICANT WEATHER AND/OR OBSTRUCTIONS TO VISIBILITY.

NOT ALL STATIONS ARE QUALITY CONTROLLED BY THE NATIONAL
WEATHER SERVICE. USE DATA WITH CAUTION...ESPECIALLY
DEWPOINT OBSERVATIONS.

SCZ027-030-031-034>040-042>050-260200-
...SOUTHEAST SOUTH CAROLINA...

CITY           SKY/WX    TMP DP  RH WIND       PRES   REMARKS
N CHARLESTON   CLEAR     45  38  76 S8        29.88S
WATERFRONT PRK NOT AVBL
MOUNT PLEASANT FAIR     N/A N/A N/A CALM      29.88S
PINOPOLIS      NOT AVBL
MONCKS CORNER  FAIR      48  39  71 S7        29.87S
SUMMERVILLE    FAIR      46  41  81 S3        29.88F
BEAUFORT MCAS  CLEAR     48  42  80 S5        29.87F
BEAUFORT ARPT  FAIR      50  46  87 SW7       29.87F
HILTON HEAD IS CLEAR     52  46  82 S6        29.89F
WALTERBORO     CLEAR     46  39  76 S5        29.88S
ALLENDALE      FAIR      48  36  61 CALM      29.84F

...SOUTHERN MIDLANDS AND PEE DEE...

CITY           SKY/WX    TMP DP  RH WIND       PRES   REMARKS
GEORGETOWN     NOT AVBL
KINGSTREE      NOT AVBL
ORANGEBURG     CLEAR     48  36  63 S7        29.84S
BARNWELL       FAIR      52  34  50 CALM      29.84S
AIKEN          FAIR      48  32  53 S6        29.84S
MANNING        NOT AVBL
COLUMBIA       CLEAR     48  33  56 S3        29.81F
SUMTER         CLEAR     45  37  73 S3        29.82S
FLORENCE       CLEAR     47  36  65 S10       29.85S
MYRTLE BEACH   NOT AVBL
N MYRTLE BEACH CLEAR     51  43  74 S7        29.87S

$$

GAZ063-065-086>088-099>101-113>116-118-119-134>141-150-260200-
...SOUTHEAST GEORGIA...

CITY           SKY/WX    TMP DP  RH WIND       PRES   REMARKS
SAVANNAH ARPT  CLEAR     49  42  77 S9        29.88S
HUNTER AAF     CLEAR     51  45  81 S7        29.85F
FORT STEWART   CLEAR     51  35  53 S5        29.86F
STATESBORO     CLEAR     42  35  76 CALM      29.86S
SYLVANIA       CLEAR     45  36  68 CALM      29.86S
CLAXTON        FAIR      43  39  87 CALM      29.87R

...CSRA...CENTRAL AND FAR SOUTHEAST GEORGIA...

CITY           SKY/WX    TMP DP  RH WIND       PRES   REMARKS
THOMSON        CLEAR     52  35  52 CALM      29.85R
AUGUSTA-BUSH   CLEAR     46  31  55 S7        29.83S
AUGUSTA-DANIEL CLEAR     53  31  42 S6        29.83R
SWAINSBORO     FAIR      52  25  35 S5        29.84F
VIDALIA        CLEAR     50  36  57 S6        29.85F
EASTMAN        FAIR      48  38  67 S6        29.85F
HAZLEHURST     FAIR      52  37  57 S6        29.84F
ALMA           CLEAR     50  35  56 S6        29.87S
WAYCROSS       CLEAR     55  42  61 SW10      29.89R
JESUP          FAIR      50  41  71 CALM      29.88F
BAXLEY         FAIR      52  36  54 S6        29.86S
BRUNSWICK      CLEAR     50  43  76 S5        29.91S
SAINT SIMONS   CLEAR     55  36  48 S7        29.91S

$$

SCZ027-028-034-036>038-045-046-048>050-GAZ119-141-260200-
...LAKE AND SUPPLEMENTAL COASTAL OBSERVATIONS...

STATION/POSITION TIME  TEMP    WIND        PRES    WAVE   SWELL
                       AIR SEA DIR/SP/G            HT/PER HT/PER/DIR
                 (UTC) (F)     (DEG/KT/KT) (MB)    (FT/S) (FT/S/D)
UPR LAKE MARION  NOT AVBL
WINYAH BAY       0000   48     250/  2     1011.0S
LAKE MURRAY      0000   52     210/  2/  3 1008.8F
ACE BASIN NERRS  NOT AVBL
FORT PULASKI     0100   52 53  180/  7/ 12 1012.0F
SAPELO ISLAND    0000   51     180/  8     1012.0S

$$

ANZ835-935-AMZ111-154-330-350-352-354-370-450-454-472-260200-
...C-MAN AND BUOY OBSERVATIONS...

STATION/POSITION TIME  TEMP    WIND        PRES    WAVE   SWELL
                       AIR SEA DIR/SP/G            HT/PER HT/PER/DIR
                 (UTC) (F)     (DEG/KT/KT) (MB)    (FT/S) (FT/S/D)
BUOY 41004       0100   61 69  220/ 17/ 23 1011.6R   3/ 4   2/10
BUOY 41008       0100   56 55  190/ 16/ 19 1012.5S   2/ 4
FOLLY BEACH CMAN 0000   53     200/ 13/ 15 1012.3R
CAPERS NEARSHORE NOT AVBL
FRIPP NEARSHORE  0000   54     190/ 17/ 19   N/A


STATION/POSITION TIME  TEMP    WIND        PRES    WAVE   SWELL
                       AIR SEA DIR/SP/G            HT/PER HT/PER/DIR
                 (UTC) (F)     (DEG/KT/KT) (MB)    (FT/S) (FT/S/D)
5E ST. MARYS GA  0100      58                N/A     2/ 3
FRYING PAN BUOY  0100   59 66  190/ 12/ 16 1012.4F   3/ 6   2/210/ 6
BUOY 41025       0100   54 69  210/ 10/ 14 1012.5F   3/ 9   3/140/ 9
CAPE LOOKOUT NC  0000   50     200/  5/  6 1012.5F
BUOY 41002       0044   66 72  230/ 14/ 17 1014.2R   5/ 8   5/250/ 8
BUOY 41010       0100   67 75  200/  8/ 12 1015.6R   4/ 7   3/ 7
ST AUGUSTINE FL  0100   53     210/  7/  8 1015.2R


$$


USA.gov is the U.S. government's official web portal to all federal, state and local government web resources and services.